Location: Poughquag
(41.6090°N, 73.6820°W)
Time: 09:30:30
(UTC-05:00)

SR - Pass Details

Date: 12 December 2023
Orbit: 574 x 868 km, 66.7° (Epoch: 25 February)

Event Time Altitude Azimuth Distance (km) Brightness Sun altitude
Rises 16:00:52 0° 340° (NNW) 3,458 ? 2.9°
Reaches altitude 10° 16:05:36 10° 14° (NNE) 2,491 ? 2.2°
Maximum altitude 16:07:18 11° 31° (NNE) 2,386 ? 1.9°
Drops below altitude 10° 16:09:00 10° 48° (NE) 2,455 ? 1.6°
Sets 16:13:30 0° 83° (E) 3,321 ? 0.9°
